TimeBST,TemperatureF,Dew PointF,Humidity,Sea Level PressureIn,VisibilityMPH,Wind Direction,Wind SpeedMPH,Gust SpeedMPH,PrecipitationIn,Events,Conditions,WindDirDegrees,DateUTC
12:20 AM,60.8,55.4,82,29.86,6.2,SSW,9.2,-,N/A,,Mostly Cloudy,210,2013-06-21 23:20:00
12:50 AM,58,53,78,29.87,19,SSW,13.8,,,,Scattered Clouds,200,2013-06-21 23:50:00
12:50 AM,59.0,53.6,82,29.86,6.2,SSW,11.5,-,N/A,,Partly Cloudy,200,2013-06-21 23:50:00
1:20 AM,57.2,51.8,82,29.86,6.2,SSW,11.5,-,N/A,,Partly Cloudy,200,2013-06-22 00:20:00
1:50 AM,55.4,51.8,88,29.86,6.2,SSW,10.4,-,N/A,,Unknown,210,2013-06-22 00:50:00
2:20 AM,55.4,50.0,82,29.83,6.2,SSW,12.7,-,N/A,,Partly Cloudy,210,2013-06-22 01:20:00
2:50 AM,55.4,50.0,82,29.83,6.2,SW,13.8,-,N/A,,Partly Cloudy,220,2013-06-22 01:50:00
3:20 AM,55.4,50.0,82,29.83,6.2,SW,12.7,-,N/A,Rain,Light Rain,220,2013-06-22 02:20:00
3:50 AM,55,50,78,29.82,13,SSW,12.7,,,Rain,Light Rain,210,2013-06-22 02:50:00
3:50 AM,55.4,50.0,82,29.80,6.2,SSW,10.4,-,N/A,Rain,Light Rain,210,2013-06-22 02:50:00
4:20 AM,55.4,51.8,88,29.80,5.0,SW,11.5,-,N/A,,Light Drizzle,220,2013-06-22 03:20:00
4:50 AM,53.6,51.8,94,29.80,3.7,SSW,10.4,-,N/A,Rain,Light Rain,210,2013-06-22 03:50:00
5:20 AM,53.6,51.8,94,29.80,2.8,SSW,13.8,-,N/A,Rain,Light Rain,200,2013-06-22 04:20:00
5:50 AM,53.6,51.8,94,29.77,5.6,SSW,15.0,-,N/A,Rain,Light Rain,200,2013-06-22 04:50:00
6:20 AM,53.6,51.8,94,29.77,3.1,South,13.8,-,N/A,Rain,Light Rain,190,2013-06-22 05:20:00
6:50 AM,54,52,92,29.76,3,South,12.7,,,Rain,Light Rain Showers,180,2013-06-22 05:50:00
6:50 AM,53.6,51.8,94,29.74,3.7,South,12.7,-,N/A,Rain,Light Rain,190,2013-06-22 05:50:00
7:20 AM,55.4,53.6,94,29.74,5.6,SSW,12.7,-,N/A,Rain,Light Rain,200,2013-06-22 06:20:00
7:50 AM,55.4,53.6,94,29.74,6.2,SSW,12.7,-,N/A,,Mostly Cloudy,210,2013-06-22 06:50:00
8:20 AM,55.4,53.6,94,29.74,6.2,SSW,13.8,-,N/A,,Mostly Cloudy,210,2013-06-22 07:20:00
8:50 AM,57.2,55.4,94,29.74,6.2,SSW,13.8,-,N/A,,Mostly Cloudy,210,2013-06-22 07:50:00
9:20 AM,59.0,55.4,88,29.71,6.2,SSW,13.8,-,N/A,,Mostly Cloudy,210,2013-06-22 08:20:00
9:50 AM,58,55,86,29.71,19,SSW,17.3,,,Rain,Light Rain Showers,210,2013-06-22 08:50:00
9:50 AM,59.0,55.4,88,29.71,6.2,SSW,15.0,-,N/A,,Mostly Cloudy,210,2013-06-22 08:50:00
10:20 AM,60.8,55.4,82,29.68,6.2,SW,18.4,-,N/A,,Scattered Clouds,220,2013-06-22 09:20:00
10:50 AM,62.6,53.6,72,29.68,6.2,SW,19.6,-,N/A,,Scattered Clouds,220,2013-06-22 09:50:00
11:20 AM,62.6,51.8,68,29.68,6.2,SW,21.9,-,N/A,,Mostly Cloudy,230,2013-06-22 10:20:00
11:50 AM,60.8,53.6,77,29.68,6.2,SW,21.9,-,N/A,,Scattered Clouds,230,2013-06-22 10:50:00
12:20 PM,62.6,53.6,72,29.68,6.2,SW,21.9,-,N/A,,Mostly Cloudy,230,2013-06-22 11:20:00
12:50 PM,64,52,56,29.69,22,SW,21.9,,,Rain,Rain,230,2013-06-22 11:50:00
12:50 PM,64.4,51.8,64,29.68,6.2,WSW,20.7,-,N/A,,Mostly Cloudy,240,2013-06-22 11:50:00
1:20 PM,64.4,51.8,64,29.68,6.2,WSW,20.7,-,N/A,,Mostly Cloudy,240,2013-06-22 12:20:00
1:50 PM,64.4,51.8,64,29.68,6.2,WSW,19.6,-,N/A,,Mostly Cloudy,240,2013-06-22 12:50:00
2:20 PM,60.8,51.8,72,29.68,6.2,SW,21.9,34.5,N/A,,Mostly Cloudy,230,2013-06-22 13:20:00
2:50 PM,64.4,51.8,64,29.68,6.2,WSW,18.4,-,N/A,,Mostly Cloudy,240,2013-06-22 13:50:00
3:20 PM,59.0,53.6,82,29.68,6.2,SW,23.0,-,N/A,Rain,Light Rain Showers,230,2013-06-22 14:20:00
3:50 PM,62,52,60,29.69,22,SSW,21.9,,,Rain,Rain,210,2013-06-22 14:50:00
3:50 PM,62.6,51.8,68,29.68,6.2,SW,19.6,33.4,N/A,,Scattered Clouds,230,2013-06-22 14:50:00
4:20 PM,62.6,51.8,68,29.68,6.2,SW,23.0,35.7,N/A,,Scattered Clouds,230,2013-06-22 15:20:00
4:50 PM,60.8,51.8,72,29.68,6.2,SW,20.7,-,N/A,,Partly Cloudy,220,2013-06-22 15:50:00
5:20 PM,60.8,51.8,72,29.68,6.2,SW,23.0,-,N/A,,Scattered Clouds,230,2013-06-22 16:20:00
5:50 PM,60.8,51.8,72,29.68,6.2,SW,18.4,-,N/A,,Scattered Clouds,220,2013-06-22 16:50:00
6:20 PM,60.8,51.8,72,29.68,6.2,SW,19.6,-,N/A,,Scattered Clouds,220,2013-06-22 17:20:00
6:50 PM,60,51,63,29.68,17,SSW,19.6,,,,Mostly Cloudy,210,2013-06-22 17:50:00
6:50 PM,60.8,51.8,72,29.68,6.2,SW,17.3,-,N/A,,Scattered Clouds,220,2013-06-22 17:50:00
7:20 PM,59.0,51.8,77,29.68,6.2,SW,16.1,29.9,N/A,,Scattered Clouds,220,2013-06-22 18:20:00
7:50 PM,59.0,50.0,72,29.68,6.2,SW,18.4,-,N/A,,Scattered Clouds,220,2013-06-22 18:50:00
8:20 PM,59.0,50.0,72,29.68,6.2,SW,17.3,-,N/A,,Partly Cloudy,220,2013-06-22 19:20:00
8:50 PM,59.0,50.0,72,29.68,6.2,SW,15.0,-,N/A,,Partly Cloudy,220,2013-06-22 19:50:00
9:20 PM,59.0,50.0,72,29.68,6.2,SW,16.1,-,N/A,,Scattered Clouds,220,2013-06-22 20:20:00
9:50 PM,58,50,68,29.69,15,SSW,19.6,,,,Partly Cloudy,210,2013-06-22 20:50:00
9:50 PM,57.2,51.8,82,29.68,6.2,SW,17.3,31.1,N/A,,Scattered Clouds,230,2013-06-22 20:50:00
10:20 PM,55.4,53.6,94,29.68,6.2,SW,13.8,-,N/A,,Scattered Clouds,220,2013-06-22 21:20:00
10:50 PM,55.4,53.6,94,29.68,6.2,SW,15.0,-,N/A,,Scattered Clouds,230,2013-06-22 21:50:00
11:20 PM,57.2,51.8,82,29.68,6.2,WSW,15.0,-,N/A,,Scattered Clouds,240,2013-06-22 22:20:00
11:50 PM,57.2,51.8,82,29.68,6.2,SW,12.7,-,N/A,,Scattered Clouds,220,2013-06-22 22:50:00